Home   Weather   Burlington   Past weeks
Flag for Canada

Past Weather in Burlington, Ontario, Canada — Yesterday and Last 2 Weeks

Now
28 °F

Chilly.


Feels Like: 24 °F
Forecast: 35 / 25 °F
Wind: 3 mph from West

Location: Burlington Piers

Current Time: Dec 16, 2019 at 12:05:45 am

Latest Report: Dec 15, 2019 at 11:00 pm


Visibility: N/A

Pressure: 30.17 "Hg

Humidity: 68%

Dew Point: 18 °F

Location of BurlingtonLocation

Past Weather in Burlington — Graph

°F

Burlington Temperature Yesterday

Maximum temperature yesterday: 38 °F (at 12:00 am)
Minimum temperature yesterday: 27 °F (at 10:00 pm)
Average temperature yesterday: 32 °F

High & Low Weather Summary for the Past Weeks

 TemperatureHumidityPressure
High52 °F (Dec 10, 1:00 am)98% (Dec 1, 7:00 pm)30.66 "Hg (Dec 1, 7:00 pm)
Low19 °F (Dec 12, 7:00 am)49% (Dec 13, 1:00 pm)29.39 "Hg (Dec 4, 1:00 pm)
Average34 °F74%29.92 "Hg
* Reported Nov 30 11:00 pm — Dec 15 11:00 pm, Burlington. Weather by CustomWeather, © 2019

Note: Actual official high and low records may vary slightly from our data, if they occured in-between our weather recording intervals... More about our weather records

Burlington Weather History for the Previous 24 Hours

Scroll right to see more
 ConditionsComfort  
Time TempWeatherWind HumidityBarometerVisibility
11:00 pm
Sun, Dec 15
28 °FChilly.3 mph68%30.17 "HgN/A
10:00 pm27 °FChilly.3 mph62%30.17 "HgN/A
9:00 pm28 °FChilly.6 mph64%30.19 "HgN/A
8:00 pm28 °FChilly.6 mph60%30.16 "HgN/A
7:00 pm28 °FChilly.7 mph56%N/AN/A
6:00 pm28 °FChilly.7 mph58%30.12 "HgN/A
5:00 pm29 °FChilly.10 mph53%30.10 "HgN/A
4:00 pm29 °FChilly.15 mph53%30.08 "HgN/A
3:00 pm30 °FChilly.16 mph50%30.04 "HgN/A
2:00 pm32 °FChilly.9 mph54%29.99 "HgN/A
1:00 pm33 °FChilly.18 mph55%29.95 "HgN/A
12:00 pm31 °FChilly.15 mph58%29.93 "HgN/A
11:00 am31 °FChilly.16 mph59%29.91 "HgN/A
10:00 am32 °FChilly.16 mph60%29.88 "HgN/A
9:00 am34 °FChilly.13 mph65%29.83 "HgN/A
8:00 am35 °FChilly.10 mph67%29.78 "HgN/A
7:00 am35 °FChilly.7 mph72%29.73 "HgN/A
6:00 am35 °FChilly.9 mph72%29.69 "HgN/A
5:00 am35 °FChilly.7 mph87%29.65 "HgN/A
4:00 am35 °FChilly.6 mph91%29.61 "HgN/A
3:00 am37 °FChilly.9 mph79%29.59 "HgN/A
2:00 am37 °FChilly.9 mph79%29.56 "HgN/A
1:00 am37 °FChilly.8 mph84%29.54 "HgN/A
12:00 am38 °FChilly.10 mph71%29.53 "HgN/A
Weather by CustomWeather, © 2019

See weather overview

Advertising